{"data":{"norad_id":48988,"intl_designator":"2021-060X","name":"ONEWEB-0270","alt_names":[],"object_type":"PAYLOAD","status":"ACTIVE","operator":null,"country":"UK","launch_date":"2021-07-01","launch_site_code":"VOSTO","launch_vehicle":null,"mission":null,"orbit_class":"UNKNOWN","rcs_meters":null,"size_class":null,"mass_kg":null,"dimensions":null,"purposes":["comms"],"wikipedia_slug":null,"has_3d_model":false,"image_url":null,"decayed_at":null,"tle_current":{"epoch":"2026-09-20T04:18:47.642112Z","epoch_age_seconds":49639,"freshness":"FRESH","line1":"1 48988U 21060X   26263.17971808  .00000032  00000+0  51224-4 0  9998","line2":"2 48988  87.9146 209.9210 0001870  67.3943 292.7386 13.16594069252162","mean_motion":13.16594069,"eccentricity":0.000187,"inclination_deg":87.9146,"raan_deg":209.921,"arg_perigee_deg":67.3943,"mean_anomaly_deg":292.7386,"bstar":5.1224e-5,"rev_number":25216,"period_min":109.37311916449,"perigee_km":1196.3406960314,"apogee_km":1199.1740805326,"semimajor_km":7575.894388282,"source":"CELESTRAK","updated_at":"2026-09-20T09:00:44.627226Z"}}}